Year,Month,Day,Hour,Minute,Value (Times are PST for temperature in C)
2016,08,25,00,00,18.20
2016,08,25,00,01,18.20
2016,08,25,00,02,18.20
2016,08,25,00,03,18.20
2016,08,25,00,04,18.20
2016,08,25,00,05,18.20
2016,08,25,00,06,18.20
2016,08,25,00,07,18.20
2016,08,25,00,08,18.20
2016,08,25,00,09,18.20
2016,08,25,00,10,18.20
2016,08,25,00,11,18.20
2016,08,25,00,12,18.20
2016,08,25,00,13,18.10
2016,08,25,00,14,18.10
2016,08,25,00,15,18.10
2016,08,25,00,16,18.10
2016,08,25,00,17,18.10
2016,08,25,00,18,18.10
2016,08,25,00,19,18.00
2016,08,25,00,20,17.90
2016,08,25,00,21,17.90
2016,08,25,00,22,17.90
2016,08,25,00,23,17.90
2016,08,25,00,24,17.90
2016,08,25,00,25,17.90
2016,08,25,00,26,17.90
2016,08,25,00,27,17.90
2016,08,25,00,28,17.90
2016,08,25,00,29,17.90
2016,08,25,00,30,17.90
2016,08,25,00,31,17.90
2016,08,25,00,32,17.90
2016,08,25,00,33,17.90
2016,08,25,00,34,17.90
2016,08,25,00,35,17.90
2016,08,25,00,36,17.90
2016,08,25,00,37,17.90
2016,08,25,00,38,17.90
2016,08,25,00,39,17.90
2016,08,25,00,40,17.90
2016,08,25,00,41,17.90
2016,08,25,00,42,17.90
2016,08,25,00,43,17.90
2016,08,25,00,44,17.90
2016,08,25,00,45,17.80
2016,08,25,00,46,17.80
2016,08,25,00,47,17.80
2016,08,25,00,48,17.80
2016,08,25,00,49,17.80
2016,08,25,00,50,17.70
2016,08,25,00,51,17.70
2016,08,25,00,52,17.70
2016,08,25,00,53,17.70
2016,08,25,00,54,17.60
2016,08,25,00,55,17.60
2016,08,25,00,56,17.60
2016,08,25,00,57,17.50
2016,08,25,00,58,17.50
2016,08,25,00,59,17.50
2016,08,25,01,00,17.50
2016,08,25,01,01,17.40
2016,08,25,01,02,17.40
2016,08,25,01,03,17.40
2016,08,25,01,04,17.30
2016,08,25,01,05,17.30
2016,08,25,01,06,17.30
2016,08,25,01,07,17.30
2016,08,25,01,08,17.30
2016,08,25,01,09,17.30
2016,08,25,01,10,17.30
2016,08,25,01,11,17.30
2016,08,25,01,12,17.20
2016,08,25,01,13,17.20
2016,08,25,01,14,17.20
2016,08,25,01,15,17.20
2016,08,25,01,16,17.20
2016,08,25,01,17,17.20
2016,08,25,01,18,17.20
2016,08,25,01,19,17.20
2016,08,25,01,20,17.20
2016,08,25,01,21,17.10
2016,08,25,01,22,17.10
2016,08,25,01,23,17.10
2016,08,25,01,24,17.10
2016,08,25,01,25,17.00
2016,08,25,01,26,17.00
2016,08,25,01,27,17.00
2016,08,25,01,28,17.00
2016,08,25,01,29,17.00
2016,08,25,01,30,17.00
2016,08,25,01,31,17.00
2016,08,25,01,32,17.00
2016,08,25,01,33,17.00
2016,08,25,01,34,17.00
2016,08,25,01,35,16.90
2016,08,25,01,36,16.90
2016,08,25,01,37,16.90
2016,08,25,01,38,16.90
2016,08,25,01,39,16.90
2016,08,25,01,40,16.90
2016,08,25,01,41,16.90
2016,08,25,01,42,16.90
2016,08,25,01,43,16.90
2016,08,25,01,44,16.90
2016,08,25,01,45,16.90
2016,08,25,01,46,16.90
2016,08,25,01,47,16.80
2016,08,25,01,48,16.80
2016,08,25,01,49,16.80
2016,08,25,01,50,16.80
2016,08,25,01,51,16.70
2016,08,25,01,52,16.70
2016,08,25,01,53,16.70
2016,08,25,01,54,16.70
2016,08,25,01,55,16.70
2016,08,25,01,56,16.70
2016,08,25,01,57,16.70
2016,08,25,01,58,16.60
2016,08,25,01,59,16.60
2016,08,25,02,00,16.60
2016,08,25,02,01,16.60
2016,08,25,02,02,16.60
2016,08,25,02,03,16.60
2016,08,25,02,04,16.60
2016,08,25,02,05,16.50
2016,08,25,02,06,16.40
2016,08,25,02,07,16.40
2016,08,25,02,08,16.40
2016,08,25,02,09,16.40
2016,08,25,02,10,16.40
2016,08,25,02,11,16.40
2016,08,25,02,12,16.40
2016,08,25,02,13,16.40
2016,08,25,02,14,16.40
2016,08,25,02,15,16.40
2016,08,25,02,16,16.40
2016,08,25,02,17,16.40
2016,08,25,02,18,16.40
2016,08,25,02,19,16.40
2016,08,25,02,20,16.40
2016,08,25,02,21,16.40
2016,08,25,02,22,16.40
2016,08,25,02,23,16.40
2016,08,25,02,24,16.40
2016,08,25,02,25,16.40
2016,08,25,02,26,16.40
2016,08,25,02,27,16.40
2016,08,25,02,28,16.40
2016,08,25,02,29,16.40
2016,08,25,02,30,16.40
2016,08,25,02,31,16.40
2016,08,25,02,32,16.40
2016,08,25,02,33,16.40
2016,08,25,02,34,16.40
2016,08,25,02,35,16.40
2016,08,25,02,36,16.40
2016,08,25,02,37,16.40
2016,08,25,02,38,16.40
2016,08,25,02,39,16.40
2016,08,25,02,40,16.40
2016,08,25,02,41,16.40
2016,08,25,02,42,16.40
2016,08,25,02,43,16.40
2016,08,25,02,44,16.40
2016,08,25,02,45,16.40
2016,08,25,02,46,16.30
2016,08,25,02,47,16.30
2016,08,25,02,48,16.30
2016,08,25,02,49,16.30
2016,08,25,02,50,16.30
2016,08,25,02,51,16.30
2016,08,25,02,52,16.30
2016,08,25,02,53,16.30
2016,08,25,02,54,16.30
2016,08,25,02,55,16.30
2016,08,25,02,56,16.30
2016,08,25,02,57,16.30
2016,08,25,02,58,16.30
2016,08,25,02,59,16.20
2016,08,25,03,00,16.20
2016,08,25,03,01,16.20
2016,08,25,03,02,16.20
2016,08,25,03,03,16.20
2016,08,25,03,04,16.20
2016,08,25,03,05,16.20
2016,08,25,03,06,16.10
2016,08,25,03,07,16.10
2016,08,25,03,08,16.10
2016,08,25,03,09,16.10
2016,08,25,03,10,16.10
2016,08,25,03,11,16.10
2016,08,25,03,12,16.10
2016,08,25,03,13,16.10
2016,08,25,03,14,16.10
2016,08,25,03,15,16.10
2016,08,25,03,16,16.10
2016,08,25,03,17,16.10
2016,08,25,03,18,15.90
2016,08,25,03,19,15.90
2016,08,25,03,20,15.90
2016,08,25,03,21,15.90
2016,08,25,03,22,15.90
2016,08,25,03,23,15.80
2016,08,25,03,24,15.80
2016,08,25,03,25,15.80
2016,08,25,03,26,15.80
2016,08,25,03,27,15.80
2016,08,25,03,28,15.80
2016,08,25,03,29,15.80
2016,08,25,03,30,15.80
2016,08,25,03,31,15.80
2016,08,25,03,32,15.70
2016,08,25,03,33,15.70
2016,08,25,03,34,15.70
2016,08,25,03,35,15.70
2016,08,25,03,36,15.70
2016,08,25,03,37,15.70
2016,08,25,03,38,15.60
2016,08,25,03,39,15.60
2016,08,25,03,40,15.60
2016,08,25,03,41,15.60
2016,08,25,03,42,15.60
2016,08,25,03,43,15.50
2016,08,25,03,44,15.50
2016,08,25,03,45,15.50
2016,08,25,03,46,15.50
2016,08,25,03,47,15.50
2016,08,25,03,48,15.50
2016,08,25,03,49,15.50
2016,08,25,03,50,15.50
2016,08,25,03,51,15.40
2016,08,25,03,52,15.40
2016,08,25,03,53,15.40
2016,08,25,03,54,15.40
2016,08,25,03,55,15.40
2016,08,25,03,56,15.40
2016,08,25,03,57,15.40
2016,08,25,03,58,15.40
2016,08,25,03,59,15.40
2016,08,25,04,00,15.40
2016,08,25,04,01,15.40
2016,08,25,04,02,15.40
2016,08,25,04,03,15.40
2016,08,25,04,04,15.40
2016,08,25,04,05,15.40
2016,08,25,04,06,15.40
2016,08,25,04,07,15.30
2016,08,25,04,08,15.30
2016,08,25,04,09,15.30
2016,08,25,04,10,15.30
2016,08,25,04,11,15.30
2016,08,25,04,12,15.30
2016,08,25,04,13,15.30
2016,08,25,04,14,15.30
2016,08,25,04,15,15.30
2016,08,25,04,16,15.30
2016,08,25,04,17,15.30
2016,08,25,04,18,15.30
2016,08,25,04,19,15.30
2016,08,25,04,20,15.30
2016,08,25,04,21,15.30
2016,08,25,04,22,15.30
2016,08,25,04,23,15.30
2016,08,25,04,24,15.30
2016,08,25,04,25,15.30
2016,08,25,04,26,15.30
2016,08,25,04,27,15.30
2016,08,25,04,28,15.30
2016,08,25,04,29,15.30
2016,08,25,04,30,15.30
2016,08,25,04,31,15.30
2016,08,25,04,32,15.30
2016,08,25,04,33,15.30
2016,08,25,04,34,15.30
2016,08,25,04,35,15.30
2016,08,25,04,36,15.30
2016,08,25,04,37,15.30
2016,08,25,04,38,15.20
2016,08,25,04,39,15.20
2016,08,25,04,40,15.20
2016,08,25,04,41,15.20
2016,08,25,04,42,15.10
2016,08,25,04,43,15.10
2016,08,25,04,44,15.10
2016,08,25,04,45,15.10
2016,08,25,04,46,15.00
2016,08,25,04,47,15.00
2016,08,25,04,48,15.00
2016,08,25,04,49,15.00
2016,08,25,04,50,15.00
2016,08,25,04,51,15.00
2016,08,25,04,52,15.00
2016,08,25,04,53,15.00
2016,08,25,04,54,15.00
2016,08,25,04,55,15.00
2016,08,25,04,56,14.90
2016,08,25,04,57,14.90
2016,08,25,04,58,14.90
2016,08,25,04,59,14.80
2016,08,25,05,00,14.80
2016,08,25,05,01,14.80
2016,08,25,05,02,14.80
2016,08,25,05,03,14.80
2016,08,25,05,04,14.80
2016,08,25,05,05,14.80
2016,08,25,05,06,14.80
2016,08,25,05,07,14.80
2016,08,25,05,08,14.80
2016,08,25,05,09,14.80
2016,08,25,05,10,14.80
2016,08,25,05,11,14.80
2016,08,25,05,12,14.80
2016,08,25,05,13,14.80
2016,08,25,05,14,14.80
2016,08,25,05,15,14.80
2016,08,25,05,16,14.80
2016,08,25,05,17,14.80
2016,08,25,05,18,14.80
2016,08,25,05,19,14.80
2016,08,25,05,20,14.80
2016,08,25,05,21,14.80
2016,08,25,05,22,14.70
2016,08,25,05,23,14.70
2016,08,25,05,24,14.70
2016,08,25,05,25,14.70
2016,08,25,05,26,14.70
2016,08,25,05,27,14.70
2016,08,25,05,28,14.70
2016,08,25,05,29,14.70
2016,08,25,05,30,14.70
2016,08,25,05,31,14.70
2016,08,25,05,32,14.70
2016,08,25,05,33,14.70
2016,08,25,05,34,14.70
2016,08,25,05,35,14.70
2016,08,25,05,36,14.70
2016,08,25,05,37,14.70
2016,08,25,05,38,14.70
2016,08,25,05,39,14.70
2016,08,25,05,40,14.70
2016,08,25,05,41,14.70
2016,08,25,05,42,14.70
2016,08,25,05,43,14.70
2016,08,25,05,44,14.60
2016,08,25,05,45,14.60
2016,08,25,05,46,14.60
2016,08,25,05,47,14.60
2016,08,25,05,48,14.60
2016,08,25,05,49,14.60
2016,08,25,05,50,14.60
2016,08,25,05,51,14.60
2016,08,25,05,52,14.60
2016,08,25,05,53,14.50
2016,08,25,05,54,14.50
2016,08,25,05,55,14.50
2016,08,25,05,56,14.50
2016,08,25,05,57,14.50
2016,08,25,05,58,14.50
2016,08,25,05,59,14.50
2016,08,25,06,00,14.50
2016,08,25,06,01,14.50
2016,08,25,06,02,14.50
2016,08,25,06,03,14.50
2016,08,25,06,04,14.50
2016,08,25,06,05,14.50
2016,08,25,06,06,14.40
2016,08,25,06,07,14.40
2016,08,25,06,08,14.40
2016,08,25,06,09,14.40
2016,08,25,06,10,14.40
2016,08,25,06,11,14.40
2016,08,25,06,12,14.40
2016,08,25,06,13,14.40
2016,08,25,06,14,14.40
2016,08,25,06,15,14.40
2016,08,25,06,16,14.30
2016,08,25,06,17,14.30
2016,08,25,06,18,14.30
2016,08,25,06,19,14.30
2016,08,25,06,20,14.30
2016,08,25,06,21,14.30
2016,08,25,06,22,14.30
2016,08,25,06,23,14.30
2016,08,25,06,24,14.30
2016,08,25,06,25,14.30
2016,08,25,06,26,14.30
2016,08,25,06,27,14.30
2016,08,25,06,28,14.30
2016,08,25,06,29,14.30
2016,08,25,06,30,14.30
2016,08,25,06,31,14.20
2016,08,25,06,32,14.20
2016,08,25,06,33,14.20
2016,08,25,06,34,14.20
2016,08,25,06,35,14.20
2016,08,25,06,36,14.20
2016,08,25,06,37,14.20
2016,08,25,06,38,14.20
2016,08,25,06,39,14.30
2016,08,25,06,40,14.30
2016,08,25,06,41,14.30
2016,08,25,06,42,14.30
2016,08,25,06,43,14.30
2016,08,25,06,44,14.30
2016,08,25,06,45,14.30
2016,08,25,06,46,14.40
2016,08,25,06,47,14.40
2016,08,25,06,48,14.40
2016,08,25,06,49,14.50
2016,08,25,06,50,14.50
2016,08,25,06,51,14.50
2016,08,25,06,52,14.60
2016,08,25,06,53,14.60
2016,08,25,06,54,14.60
2016,08,25,06,55,14.60
2016,08,25,06,56,14.70
2016,08,25,06,57,14.70
2016,08,25,06,58,14.80
2016,08,25,06,59,14.80
2016,08,25,07,00,14.80
2016,08,25,07,01,14.80
2016,08,25,07,02,14.80
2016,08,25,07,03,14.80
2016,08,25,07,04,14.80
2016,08,25,07,05,14.90
2016,08,25,07,06,14.90
2016,08,25,07,07,15.00
2016,08,25,07,08,15.00
2016,08,25,07,09,15.10
2016,08,25,07,10,15.20
2016,08,25,07,11,15.30
2016,08,25,07,12,15.30
2016,08,25,07,13,15.30
2016,08,25,07,14,15.30
2016,08,25,07,15,15.30
2016,08,25,07,16,15.40
2016,08,25,07,17,15.40
2016,08,25,07,18,15.40
2016,08,25,07,19,15.40
2016,08,25,07,20,15.50
2016,08,25,07,21,15.50
2016,08,25,07,22,15.50
2016,08,25,07,23,15.60
2016,08,25,07,24,15.70
2016,08,25,07,25,15.80
2016,08,25,07,26,15.80
2016,08,25,07,27,15.80
2016,08,25,07,28,15.90
2016,08,25,07,29,16.00
2016,08,25,07,30,16.10
2016,08,25,07,31,16.10
2016,08,25,07,32,16.30
2016,08,25,07,33,16.30
2016,08,25,07,34,16.40
2016,08,25,07,35,16.40
2016,08,25,07,36,16.60
2016,08,25,07,37,16.70
2016,08,25,07,38,16.70
2016,08,25,07,39,16.80
2016,08,25,07,40,16.90
2016,08,25,07,41,17.00
2016,08,25,07,42,17.00
2016,08,25,07,43,17.10
2016,08,25,07,44,17.20
2016,08,25,07,45,17.30
2016,08,25,07,46,17.30
2016,08,25,07,47,17.30
2016,08,25,07,48,17.40
2016,08,25,07,49,17.50
2016,08,25,07,50,17.60
2016,08,25,07,51,17.70
2016,08,25,07,52,17.70
2016,08,25,07,53,17.80
2016,08,25,07,54,17.80
2016,08,25,07,55,17.90
2016,08,25,07,56,17.90
2016,08,25,07,57,18.10
2016,08,25,07,58,18.10
2016,08,25,07,59,18.10
2016,08,25,08,00,18.10
2016,08,25,08,01,18.20
2016,08,25,08,02,18.20
2016,08,25,08,03,18.20
2016,08,25,08,04,18.20
2016,08,25,08,05,18.20
2016,08,25,08,06,18.20
2016,08,25,08,07,18.30
2016,08,25,08,08,18.40
2016,08,25,08,09,18.40
2016,08,25,08,10,18.50
2016,08,25,08,11,18.60
2016,08,25,08,12,18.60
2016,08,25,08,13,18.70
2016,08,25,08,14,18.80
2016,08,25,08,15,18.90
2016,08,25,08,16,18.90
2016,08,25,08,17,19.00
2016,08,25,08,18,19.10
2016,08,25,08,19,19.10
2016,08,25,08,20,19.10
2016,08,25,08,21,19.20
2016,08,25,08,22,19.30
2016,08,25,08,23,19.40
2016,08,25,08,24,19.50
2016,08,25,08,25,19.60
2016,08,25,08,26,19.70
2016,08,25,08,27,19.80
2016,08,25,08,28,19.90
2016,08,25,08,29,19.90
2016,08,25,08,30,19.90
2016,08,25,08,31,20.00
2016,08,25,08,32,20.10
2016,08,25,08,33,20.20
2016,08,25,08,34,20.20
2016,08,25,08,35,20.30
2016,08,25,08,36,20.30
2016,08,25,08,37,20.40
2016,08,25,08,38,20.50
2016,08,25,08,39,20.50
2016,08,25,08,40,20.60
2016,08,25,08,41,20.70
2016,08,25,08,42,20.70
2016,08,25,08,43,20.80
2016,08,25,08,44,20.80
2016,08,25,08,45,20.90
2016,08,25,08,46,21.00
2016,08,25,08,47,21.10
2016,08,25,08,48,21.20
2016,08,25,08,49,21.20
2016,08,25,08,50,21.20
2016,08,25,08,51,21.20
2016,08,25,08,52,21.20
2016,08,25,08,53,21.20
2016,08,25,08,54,21.20
2016,08,25,08,55,21.20
2016,08,25,08,56,21.20
2016,08,25,08,57,21.10
2016,08,25,08,58,21.10
2016,08,25,08,59,21.10
2016,08,25,09,00,21.10
2016,08,25,09,01,21.10
2016,08,25,09,02,21.10
2016,08,25,09,03,21.10
2016,08,25,09,04,21.20
2016,08,25,09,05,21.20
2016,08,25,09,06,21.20
2016,08,25,09,07,21.30
2016,08,25,09,08,21.30
2016,08,25,09,09,21.40
2016,08,25,09,10,21.50
2016,08,25,09,11,21.60
2016,08,25,09,12,21.70
2016,08,25,09,13,21.80
2016,08,25,09,14,21.90
2016,08,25,09,15,22.00
2016,08,25,09,16,22.10
2016,08,25,09,17,22.20
2016,08,25,09,18,22.30
2016,08,25,09,19,22.30
2016,08,25,09,20,22.40
2016,08,25,09,21,22.40
2016,08,25,09,22,22.50
2016,08,25,09,23,22.50
2016,08,25,09,24,22.60
2016,08,25,09,25,22.70
2016,08,25,09,26,22.90
2016,08,25,09,27,23.00
2016,08,25,09,28,23.20
2016,08,25,09,29,23.30
2016,08,25,09,30,23.40
2016,08,25,09,31,23.60
2016,08,25,09,32,23.70
2016,08,25,09,33,23.80
2016,08,25,09,34,24.00
2016,08,25,09,35,24.10
2016,08,25,09,36,24.20
2016,08,25,09,37,24.30
2016,08,25,09,38,24.50
2016,08,25,09,39,24.50
2016,08,25,09,40,24.60
2016,08,25,09,41,24.70
2016,08,25,09,42,24.80
2016,08,25,09,43,24.80
2016,08,25,09,44,24.90
2016,08,25,09,45,24.90
2016,08,25,09,46,25.00
2016,08,25,09,47,25.10
2016,08,25,09,48,25.10
2016,08,25,09,49,25.20
2016,08,25,09,50,25.20
2016,08,25,09,51,25.30
2016,08,25,09,52,25.30
2016,08,25,09,53,25.40
2016,08,25,09,54,25.40
2016,08,25,09,55,25.50
2016,08,25,09,56,25.50
2016,08,25,09,57,25.50
2016,08,25,09,58,25.60
2016,08,25,09,59,25.60
2016,08,25,10,00,25.60
2016,08,25,10,01,25.70
2016,08,25,10,02,25.70
2016,08,25,10,03,25.70
2016,08,25,10,04,25.70
2016,08,25,10,05,25.60
2016,08,25,10,06,25.60
2016,08,25,10,07,25.60
2016,08,25,10,08,25.60
2016,08,25,10,09,25.60
2016,08,25,10,10,25.60
2016,08,25,10,11,25.60
2016,08,25,10,12,25.70
2016,08,25,10,13,25.60
2016,08,25,10,14,25.60
2016,08,25,10,15,25.60
2016,08,25,10,16,25.60
2016,08,25,10,17,25.60
2016,08,25,10,18,25.60
2016,08,25,10,19,25.70
2016,08,25,10,20,25.80
2016,08,25,10,21,25.80
2016,08,25,10,22,25.90
2016,08,25,10,23,25.90
2016,08,25,10,24,25.90
2016,08,25,10,25,25.90
2016,08,25,10,26,25.90
2016,08,25,10,27,25.90
2016,08,25,10,28,25.90
2016,08,25,10,29,25.90
2016,08,25,10,30,25.90
2016,08,25,10,31,25.90
2016,08,25,10,32,25.90
2016,08,25,10,33,26.00
2016,08,25,10,34,26.10
2016,08,25,10,35,26.20
2016,08,25,10,36,26.20
2016,08,25,10,37,26.20
2016,08,25,10,38,26.30
2016,08,25,10,39,26.30
2016,08,25,10,40,26.30
2016,08,25,10,41,26.30
2016,08,25,10,42,26.30
2016,08,25,10,43,26.30
2016,08,25,10,44,26.30
2016,08,25,10,45,26.40
2016,08,25,10,46,26.40
2016,08,25,10,47,26.50
2016,08,25,10,48,26.60
2016,08,25,10,49,26.60
2016,08,25,10,50,26.70
2016,08,25,10,51,26.70
2016,08,25,10,52,26.70
2016,08,25,10,53,26.70
2016,08,25,10,54,26.70
2016,08,25,10,55,26.70
2016,08,25,10,56,26.70
2016,08,25,10,57,26.80
2016,08,25,10,58,26.80
2016,08,25,10,59,26.80
2016,08,25,11,00,26.80
2016,08,25,11,01,26.90
2016,08,25,11,02,26.90
2016,08,25,11,03,27.00
2016,08,25,11,04,27.10
2016,08,25,11,05,27.10
2016,08,25,11,06,27.10
2016,08,25,11,07,27.10
2016,08,25,11,08,27.10
2016,08,25,11,09,27.10
2016,08,25,11,10,27.10
2016,08,25,11,11,27.10
2016,08,25,11,12,27.10
2016,08,25,11,13,26.90
2016,08,25,11,14,26.90
2016,08,25,11,15,26.90
2016,08,25,11,16,26.90
2016,08,25,11,17,26.90
2016,08,25,11,18,26.90
2016,08,25,11,19,26.90
2016,08,25,11,20,26.90
2016,08,25,11,21,26.90
2016,08,25,11,22,26.90
2016,08,25,11,23,26.80
2016,08,25,11,24,26.80
2016,08,25,11,25,26.90
2016,08,25,11,26,26.90
2016,08,25,11,27,26.80
2016,08,25,11,28,26.90
2016,08,25,11,29,26.90
2016,08,25,11,30,26.90
2016,08,25,11,31,26.90
2016,08,25,11,32,26.90
2016,08,25,11,33,26.80
2016,08,25,11,34,26.50
2016,08,25,11,35,26.30
2016,08,25,11,36,26.10
2016,08,25,11,37,25.80
2016,08,25,11,38,25.60
2016,08,25,11,39,25.30
2016,08,25,11,40,25.00
2016,08,25,11,41,24.70
2016,08,25,11,42,24.50
2016,08,25,11,43,24.40
2016,08,25,11,44,24.20
2016,08,25,11,45,24.10
2016,08,25,11,46,23.90
2016,08,25,11,47,23.70
2016,08,25,11,48,23.70
2016,08,25,11,49,23.70
2016,08,25,11,50,23.70
2016,08,25,11,51,23.70
2016,08,25,11,52,23.80
2016,08,25,11,53,23.90
2016,08,25,11,54,24.00
2016,08,25,11,55,24.10
2016,08,25,11,56,24.10
2016,08,25,11,57,24.10
2016,08,25,11,58,24.00
2016,08,25,11,59,24.10
2016,08,25,12,00,24.10
2016,08,25,12,01,24.20
2016,08,25,12,02,24.40
2016,08,25,12,03,24.40
2016,08,25,12,04,24.50
2016,08,25,12,05,24.50
2016,08,25,12,06,24.40
2016,08,25,12,07,24.40
2016,08,25,12,08,24.40
2016,08,25,12,09,24.40
2016,08,25,12,10,24.50
2016,08,25,12,11,24.60
2016,08,25,12,12,24.70
2016,08,25,12,13,24.70
2016,08,25,12,14,24.60
2016,08,25,12,15,24.50
2016,08,25,12,16,24.50
2016,08,25,12,17,24.50
2016,08,25,12,18,24.50
2016,08,25,12,19,24.50
2016,08,25,12,20,24.50
2016,08,25,12,21,24.50
2016,08,25,12,22,24.40
2016,08,25,12,23,24.50
2016,08,25,12,24,24.50
2016,08,25,12,25,24.50
2016,08,25,12,26,24.50
2016,08,25,12,27,24.60
2016,08,25,12,28,24.70
2016,08,25,12,29,24.80
2016,08,25,12,30,24.80
2016,08,25,12,31,24.80
2016,08,25,12,32,24.90
2016,08,25,12,33,25.00
2016,08,25,12,34,25.10
2016,08,25,12,35,25.20
2016,08,25,12,36,25.30
2016,08,25,12,37,25.40
2016,08,25,12,38,25.50
2016,08,25,12,39,25.60
2016,08,25,12,40,25.70
2016,08,25,12,41,25.90
2016,08,25,12,42,25.90
2016,08,25,12,43,26.10
2016,08,25,12,44,26.30
2016,08,25,12,45,26.50
2016,08,25,12,46,26.80
2016,08,25,12,47,27.20
2016,08,25,12,48,27.40
2016,08,25,12,49,27.60
2016,08,25,12,50,27.80
2016,08,25,12,51,27.90
2016,08,25,12,52,28.00
2016,08,25,12,53,28.10
2016,08,25,12,54,28.20
2016,08,25,12,55,28.30
2016,08,25,12,56,28.40
2016,08,25,12,57,28.50
2016,08,25,12,58,28.60
2016,08,25,12,59,28.70
2016,08,25,13,00,28.70
2016,08,25,13,01,28.70
2016,08,25,13,02,28.80
2016,08,25,13,03,28.90
2016,08,25,13,04,28.90
2016,08,25,13,05,28.90
2016,08,25,13,06,28.90
2016,08,25,13,07,28.90
2016,08,25,13,08,28.90
2016,08,25,13,09,28.90
2016,08,25,13,10,28.90
2016,08,25,13,11,28.90
2016,08,25,13,12,28.90
2016,08,25,13,13,28.90
2016,08,25,13,14,28.90
2016,08,25,13,15,28.90
2016,08,25,13,16,29.10
2016,08,25,13,17,29.10
2016,08,25,13,18,29.10
2016,08,25,13,19,29.10
2016,08,25,13,20,29.10
2016,08,25,13,21,29.10
2016,08,25,13,22,29.10
2016,08,25,13,23,29.10
2016,08,25,13,24,29.10
2016,08,25,13,25,29.10
2016,08,25,13,26,29.10
2016,08,25,13,27,29.10
2016,08,25,13,28,29.00
2016,08,25,13,29,28.90
2016,08,25,13,30,28.90
2016,08,25,13,31,28.90
2016,08,25,13,32,28.90
2016,08,25,13,33,28.90
2016,08,25,13,34,28.90
2016,08,25,13,35,28.90
2016,08,25,13,36,28.90
2016,08,25,13,37,28.90
2016,08,25,13,38,28.90
2016,08,25,13,39,28.90
2016,08,25,13,40,28.90
2016,08,25,13,41,28.90
2016,08,25,13,42,29.00
2016,08,25,13,43,29.10
2016,08,25,13,44,29.00
2016,08,25,13,45,28.90
2016,08,25,13,46,28.90
2016,08,25,13,47,28.90
2016,08,25,13,48,28.90
2016,08,25,13,49,28.90
2016,08,25,13,50,28.90
2016,08,25,13,51,28.90
2016,08,25,13,52,28.90
2016,08,25,13,53,28.90
2016,08,25,13,54,28.90
2016,08,25,13,55,29.00
2016,08,25,13,56,29.10
2016,08,25,13,57,29.10
2016,08,25,13,58,29.10
2016,08,25,13,59,29.10
2016,08,25,14,00,29.10
2016,08,25,14,01,29.10
2016,08,25,14,02,29.10
2016,08,25,14,03,29.10
2016,08,25,14,04,29.00
2016,08,25,14,05,28.90
2016,08,25,14,06,28.90
2016,08,25,14,07,28.90
2016,08,25,14,08,28.90
2016,08,25,14,09,28.90
2016,08,25,14,10,28.90
2016,08,25,14,11,28.90
2016,08,25,14,12,28.90
2016,08,25,14,13,28.90
2016,08,25,14,14,29.00
2016,08,25,14,15,29.10
2016,08,25,14,16,29.20
2016,08,25,14,17,29.20
2016,08,25,14,18,29.20
2016,08,25,14,19,29.20
2016,08,25,14,20,29.10
2016,08,25,14,21,29.10
2016,08,25,14,22,29.10
2016,08,25,14,23,29.20
2016,08,25,14,24,29.20
2016,08,25,14,25,29.20
2016,08,25,14,26,29.10
2016,08,25,14,27,29.10
2016,08,25,14,28,29.10
2016,08,25,14,29,29.00
2016,08,25,14,30,28.90
2016,08,25,14,31,28.90
2016,08,25,14,32,29.00
2016,08,25,14,33,29.10
2016,08,25,14,34,29.20
2016,08,25,14,35,29.30
2016,08,25,14,36,29.30
2016,08,25,14,37,29.40
2016,08,25,14,38,29.50
2016,08,25,14,39,29.50
2016,08,25,14,40,29.60
2016,08,25,14,41,29.60
2016,08,25,14,42,29.60
2016,08,25,14,43,29.60
2016,08,25,14,44,29.60
2016,08,25,14,45,29.70
2016,08,25,14,46,29.70
2016,08,25,14,47,29.70
2016,08,25,14,48,29.70
2016,08,25,14,49,29.70
2016,08,25,14,50,29.70
2016,08,25,14,51,29.70
2016,08,25,14,52,29.70
2016,08,25,14,53,29.70
2016,08,25,14,54,29.70
2016,08,25,14,55,29.60
2016,08,25,14,56,29.50
2016,08,25,14,57,29.50
2016,08,25,14,58,29.50
2016,08,25,14,59,29.50
2016,08,25,15,00,29.50
2016,08,25,15,01,29.50
2016,08,25,15,02,29.50
2016,08,25,15,03,29.50
2016,08,25,15,04,29.50
2016,08,25,15,05,29.50
2016,08,25,15,06,29.50
2016,08,25,15,07,29.50
2016,08,25,15,08,29.50
2016,08,25,15,09,29.60
2016,08,25,15,10,29.60
2016,08,25,15,11,29.70
2016,08,25,15,12,29.70
2016,08,25,15,13,29.70
2016,08,25,15,14,29.70
2016,08,25,15,15,29.70
2016,08,25,15,16,29.70
2016,08,25,15,17,29.70
2016,08,25,15,18,29.70
2016,08,25,15,19,29.70
2016,08,25,15,20,29.80
2016,08,25,15,21,29.80
2016,08,25,15,22,29.90
2016,08,25,15,23,29.90
2016,08,25,15,24,29.90
2016,08,25,15,25,29.90
2016,08,25,15,26,29.90
2016,08,25,15,27,29.90
2016,08,25,15,28,29.90
2016,08,25,15,29,30.00
2016,08,25,15,30,30.10
2016,08,25,15,31,30.10
2016,08,25,15,32,30.20
2016,08,25,15,33,30.20
2016,08,25,15,34,30.20
2016,08,25,15,35,30.30
2016,08,25,15,36,30.30
2016,08,25,15,37,30.30
2016,08,25,15,38,30.40
2016,08,25,15,39,30.40
2016,08,25,15,40,30.60
2016,08,25,15,41,30.60
2016,08,25,15,42,30.70
2016,08,25,15,43,30.70
2016,08,25,15,44,30.80
2016,08,25,15,45,30.90
2016,08,25,15,46,30.90
2016,08,25,15,47,30.90
2016,08,25,15,48,30.90
2016,08,25,15,49,30.90
2016,08,25,15,50,30.90
2016,08,25,15,51,30.80
2016,08,25,15,52,30.70
2016,08,25,15,53,30.70
2016,08,25,15,54,30.60
2016,08,25,15,55,30.60
2016,08,25,15,56,30.60
2016,08,25,15,57,30.60
2016,08,25,15,58,30.60
2016,08,25,15,59,30.60
2016,08,25,16,00,30.60
2016,08,25,16,01,30.60
2016,08,25,16,02,30.40
2016,08,25,16,03,30.40
2016,08,25,16,04,30.30
2016,08,25,16,05,30.30
2016,08,25,16,06,30.30
2016,08,25,16,07,30.30
2016,08,25,16,08,30.30
2016,08,25,16,09,30.30
2016,08,25,16,10,30.30
2016,08,25,16,11,30.40
2016,08,25,16,12,30.40
2016,08,25,16,13,30.40
2016,08,25,16,14,30.40
2016,08,25,16,15,30.60
2016,08,25,16,16,30.60
2016,08,25,16,17,30.60
2016,08,25,16,18,30.70
2016,08,25,16,19,30.80
2016,08,25,16,20,30.80
2016,08,25,16,21,30.90
2016,08,25,16,22,31.00
2016,08,25,16,23,31.10
2016,08,25,16,24,31.20
2016,08,25,16,25,31.20
2016,08,25,16,26,31.20
2016,08,25,16,27,31.20
2016,08,25,16,28,31.00
2016,08,25,16,29,30.80
2016,08,25,16,30,30.70
2016,08,25,16,31,30.50
2016,08,25,16,32,30.30
2016,08,25,16,33,30.20
2016,08,25,16,34,30.20
2016,08,25,16,35,30.10
2016,08,25,16,36,30.10
2016,08,25,16,37,30.10
2016,08,25,16,38,30.10
2016,08,25,16,39,30.20
2016,08,25,16,40,30.20
2016,08,25,16,41,30.20
2016,08,25,16,42,30.30
2016,08,25,16,43,30.30
2016,08,25,16,44,30.40
2016,08,25,16,45,30.60
2016,08,25,16,46,30.60
2016,08,25,16,47,30.60
2016,08,25,16,48,30.60
2016,08,25,16,49,30.70
2016,08,25,16,50,30.70
2016,08,25,16,51,30.70
2016,08,25,16,52,30.80
2016,08,25,16,53,30.90
2016,08,25,16,54,31.00
2016,08,25,16,55,31.10
2016,08,25,16,56,31.20
2016,08,25,16,57,31.20
2016,08,25,16,58,31.30
2016,08,25,16,59,31.30
2016,08,25,17,00,31.30
2016,08,25,17,01,31.30
2016,08,25,17,02,31.30
2016,08,25,17,03,31.30
2016,08,25,17,04,31.20
2016,08,25,17,05,31.20
2016,08,25,17,06,31.10
2016,08,25,17,07,31.00
2016,08,25,17,08,30.90
2016,08,25,17,09,30.90
2016,08,25,17,10,30.90
2016,08,25,17,11,30.90
2016,08,25,17,12,31.00
2016,08,25,17,13,31.00
2016,08,25,17,14,31.00
2016,08,25,17,15,31.00
2016,08,25,17,16,30.90
2016,08,25,17,17,30.80
2016,08,25,17,18,30.80
2016,08,25,17,19,30.80